Time[GMT],gps_lat[degrees_north](-3m),gps_lon[degrees_west](-3m),gps_2_lat[degrees_north](-3m),gps_2_lon[degrees_west](-3m)
2011-06-03 21:00,43.489818573,-67.871665955,43.49,-67.87
2011-06-03 22:00,43.489849091,-67.871818542,43.49,-67.87
2011-06-03 23:00,43.489982605,-67.871849060,43.49,-67.87
2011-06-04 00:00,43.490215302,-67.872047424,43.49,-67.87
2011-06-04 01:00,43.490451813,-67.872047424,43.49,-67.87
2011-06-04 02:00,43.490581512,-67.872016907,43.49,-67.87
2011-06-04 03:00,43.490531921,-67.871948242,43.49,-67.87
2011-06-04 04:00,43.490417480,-67.871833801,,
2011-06-04 05:00,43.490318298,-67.871818542,43.49,-67.87
2011-06-04 06:00,43.490200043,-67.871696472,43.49,-67.87
2011-06-04 07:00,43.490066528,-67.871719360,43.49,-67.87
2011-06-04 08:00,43.489982605,-67.871681213,43.49,-67.87
2011-06-04 09:00,43.490001678,-67.871597290,43.49,-67.87
2011-06-04 10:00,43.490001678,-67.871597290,43.49,-67.87
2011-06-04 11:00,43.490066528,-67.871635437,43.49,-67.87
2011-06-04 12:00,43.490100861,-67.871719360,,
2011-06-04 13:00,43.490200043,-67.871749878,43.49,-67.87
2011-06-04 14:00,43.490264893,-67.871818542,43.49,-67.87
2011-06-04 15:00,43.490318298,-67.871932983,43.49,-67.87
2011-06-04 16:00,43.490215302,-67.872001648,43.49,-67.87
2011-06-04 17:00,43.490150452,-67.872100830,43.49,-67.87
2011-06-04 18:00,43.490200043,-67.872184753,43.49,-67.87
2011-06-04 19:00,43.490200043,-67.872200012,43.49,-67.87
2011-06-04 20:00,43.490051270,-67.871864319,43.49,-67.87
2011-06-04 21:00,43.490066528,-67.871864319,43.49,-67.87
2011-06-04 23:00,43.490299225,-67.871696472,43.49,-67.87
2011-06-05 00:00,43.490417480,-67.871597290,43.49,-67.87
2011-06-05 01:00,43.490482330,-67.871665955,43.49,-67.87
2011-06-05 02:00,,,43.49,-67.87
2011-06-05 03:00,,,43.49,-67.87
2011-06-05 04:00,43.490264893,-67.871665955,,
2011-06-05 05:00,43.490184784,-67.871765137,43.49,-67.87
2011-06-05 06:00,43.490100861,-67.871818542,43.49,-67.87
2011-06-05 07:00,43.489948273,-67.871864319,43.49,-67.87
2011-06-05 08:00,43.489833832,-67.871917725,43.49,-67.87
2011-06-05 09:00,43.489765167,-67.871963501,43.49,-67.87
2011-06-05 10:00,43.489749908,-67.871986389,43.49,-67.87
2011-06-05 11:00,43.489849091,-67.872100830,43.49,-67.87
2011-06-05 12:00,43.490100861,-67.872230530,43.49,-67.87
2011-06-05 13:00,43.490383148,-67.872100830,43.49,-67.87
2011-06-05 14:00,43.490550995,-67.871864319,43.49,-67.87
2011-06-05 15:00,43.490684509,-67.871849060,43.49,-67.87
2011-06-05 16:00,,,43.49,-67.87
2011-06-05 17:00,,,,
2011-06-05 18:00,,,43.49,-67.87
2011-06-05 19:00,43.490249634,-67.871734619,,
2011-06-05 20:00,43.490135193,-67.871635437,43.49,-67.87
2011-06-05 21:00,43.490001678,-67.871597290,43.49,-67.87
2011-06-05 22:00,43.489967346,-67.871513367,43.49,-67.87
2011-06-05 23:00,43.489917755,-67.871498108,,
2011-06-06 00:00,43.489883423,-67.871650696,43.49,-67.87
2011-06-06 01:00,,,43.49,-67.87
2011-06-06 02:00,,,43.49,-67.87
2011-06-06 03:00,,,43.49,-67.87
2011-06-06 04:00,43.490348816,-67.872085571,43.49,-67.87
2011-06-06 05:00,43.490165710,-67.872085571,43.49,-67.87
2011-06-06 06:00,43.490299225,-67.871879578,43.49,-67.87
2011-06-06 07:00,43.490200043,-67.871917725,43.49,-67.87
2011-06-06 08:00,43.490135193,-67.871902466,43.49,-67.87
2011-06-06 09:00,43.490066528,-67.871780396,43.49,-67.87
2011-06-06 10:00,43.490016937,-67.871681213,43.49,-67.87
2011-06-06 11:00,43.490032196,-67.871681213,43.49,-67.87
2011-06-06 12:00,43.490032196,-67.871620178,43.49,-67.87
2011-06-06 13:00,,,43.49,-67.87
2011-06-06 14:00,43.490165710,-67.871635437,43.49,-67.87
2011-06-06 15:00,43.490249634,-67.871734619,,
2011-06-06 16:00,43.490299225,-67.871879578,43.49,-67.87
2011-06-06 17:00,,,43.49,-67.87
2011-06-06 18:00,,,43.49,-67.87
2011-06-06 19:00,43.490150452,-67.871948242,43.49,-67.87
2011-06-06 20:00,43.490081787,-67.871917725,43.49,-67.87
2011-06-06 21:00,43.490016937,-67.872001648,,
2011-06-06 22:00,43.489948273,-67.871963501,43.49,-67.87
2011-06-06 23:00,43.490032196,-67.872032166,43.49,-67.87
2011-06-07 00:00,43.490249634,-67.871833801,43.49,-67.87
2011-06-07 02:00,,,43.49,-67.87
2011-06-07 03:00,,,43.49,-67.87
2011-06-07 04:00,43.490501404,-67.871467590,,
2011-06-07 05:00,43.490200043,-67.871665955,43.49,-67.87
2011-06-07 06:00,43.490215302,-67.871650696,43.49,-67.87
2011-06-07 07:00,43.490135193,-67.871635437,43.49,-67.87
2011-06-07 08:00,43.490081787,-67.871719360,43.49,-67.87
2011-06-07 09:00,43.489967346,-67.871719360,43.49,-67.87
2011-06-07 10:00,43.489868164,-67.871765137,43.49,-67.87
2011-06-07 11:00,43.489784241,-67.871765137,43.49,-67.87
2011-06-07 12:00,43.489818573,-67.872001648,43.49,-67.87
2011-06-07 13:00,43.489868164,-67.871597290,43.49,-67.87
2011-06-07 14:00,43.490249634,-67.872016907,43.49,-67.87
2011-06-07 15:00,,,43.48,-67.87
2011-06-07 16:00,43.490550995,-67.871818542,43.49,-67.87
2011-06-07 17:00,,,43.49,-67.87
2011-06-07 18:00,,,43.49,-67.87
2011-06-07 19:00,43.490348816,-67.871749878,43.49,-67.87
2011-06-07 20:00,43.490318298,-67.871734619,43.49,-67.87
2011-06-07 21:00,43.490234375,-67.871734619,43.49,-67.87
2011-06-07 22:00,43.490116119,-67.871665955,43.49,-67.87
2011-06-07 23:00,43.490032196,-67.871582031,43.49,-67.87
2011-06-08 00:00,43.489982605,-67.871536255,43.49,-67.87
2011-06-08 01:00,43.490016937,-67.871551514,43.49,-67.87
2011-06-08 02:00,43.490081787,-67.871582031,43.49,-67.87
2011-06-08 03:00,,,43.49,-67.87
2011-06-08 04:00,43.490299225,-67.871734619,43.49,-67.87
2011-06-08 05:00,43.490432739,-67.871803284,43.49,-67.87
2011-06-08 06:00,,,43.49,-67.87
2011-06-08 07:00,43.490234375,-67.871765137,43.49,-67.87
2011-06-08 08:00,43.490165710,-67.871833801,43.49,-67.87
2011-06-08 09:00,43.490215302,-67.871864319,43.49,-67.87
2011-06-08 10:00,,,43.49,-67.87
2011-06-08 11:00,,,43.49,-67.87
2011-06-08 12:00,43.490032196,-67.871849060,43.49,-67.87
2011-06-08 13:00,,,,
2011-06-08 14:00,43.490318298,-67.871719360,43.49,-67.87
2011-06-08 15:00,43.490501404,-67.871620178,43.49,-67.87
2011-06-08 17:00,,,43.49,-67.87
2011-06-08 18:00,,,43.49,-67.87
2011-06-08 19:00,43.490501404,-67.871635437,43.49,-67.87
2011-06-08 20:00,43.490367889,-67.871696472,43.49,-67.87
2011-06-08 21:00,43.490283966,-67.871780396,43.49,-67.87
2011-06-08 22:00,43.490100861,-67.871734619,43.49,-67.87
2011-06-08 23:00,43.489933014,-67.871749878,43.49,-67.87
2011-06-09 00:00,43.489849091,-67.871780396,43.49,-67.87
2011-06-09 01:00,43.489833832,-67.871864319,43.49,-67.87
2011-06-09 02:00,,,43.49,-67.87
2011-06-09 03:00,,,43.49,-67.87
2011-06-09 04:00,43.490634918,-67.871932983,43.49,-67.87
2011-06-09 05:00,43.490699768,-67.871833801,43.49,-67.87
2011-06-09 06:00,,,,
2011-06-09 07:00,43.490600586,-67.871780396,43.49,-67.87
2011-06-09 08:00,43.490417480,-67.871917725,43.49,-67.87
2011-06-09 09:00,43.490398407,-67.871948242,43.49,-67.87
2011-06-09 10:00,43.490318298,-67.871849060,43.49,-67.87
2011-06-09 11:00,43.490215302,-67.871696472,43.49,-67.87
2011-06-09 12:00,43.490032196,-67.871650696,43.49,-67.87
2011-06-09 13:00,43.489982605,-67.871650696,43.49,-67.87
2011-06-09 14:00,43.489967346,-67.871681213,43.49,-67.87
2011-06-09 15:00,43.490066528,-67.871665955,43.49,-67.87
2011-06-09 16:00,43.490100861,-67.871597290,43.49,-67.87
2011-06-09 17:00,,,,
2011-06-09 18:00,,,43.49,-67.87
2011-06-09 19:00,43.490432739,-67.871818542,,
2011-06-09 20:00,43.490367889,-67.871849060,43.49,-67.87
2011-06-09 21:00,43.490333557,-67.871879578,43.49,-67.87
2011-06-09 22:00,43.490383148,-67.871948242,43.49,-67.87
2011-06-09 23:00,43.490249634,-67.871932983,43.49,-67.87
2011-06-10 00:00,43.490081787,-67.871818542,43.49,-67.87
2011-06-10 01:00,43.490051270,-67.871780396,43.49,-67.87
2011-06-10 02:00,,,43.49,-67.87
2011-06-10 03:00,43.490634918,-67.872032166,43.49,-67.87
2011-06-10 04:00,43.490299225,-67.871650696,,
2011-06-10 05:00,43.490367889,-67.871635437,43.49,-67.87
2011-06-10 06:00,43.490398407,-67.871696472,43.49,-67.87
2011-06-10 07:00,43.490383148,-67.871719360,43.49,-67.87
2011-06-10 08:00,43.490283966,-67.871765137,43.49,-67.87
2011-06-10 09:00,43.490150452,-67.871803284,43.48,-67.87
2011-06-10 10:00,43.490150452,-67.871734619,43.49,-67.87
2011-06-10 11:00,43.490001678,-67.871818542,43.49,-67.87
2011-06-10 12:00,43.489749908,-67.871879578,43.49,-67.87
2011-06-10 13:00,43.489715576,-67.872001648,43.49,-67.87
2011-06-10 14:00,43.489700317,-67.872215271,43.49,-67.87
2011-06-10 15:00,43.489833832,-67.872230530,43.49,-67.87
2011-06-10 16:00,,,,
2011-06-10 17:00,,,43.49,-67.87
2011-06-10 18:00,,,43.49,-67.87
2011-06-10 19:00,43.490684509,-67.871849060,43.49,-67.87
2011-06-10 20:00,43.490665436,-67.871749878,43.49,-67.87
2011-06-10 21:00,43.490531921,-67.871734619,43.49,-67.87
2011-06-10 22:00,43.490417480,-67.871765137,43.49,-67.87
2011-06-10 23:00,43.490299225,-67.871650696,43.49,-67.87
2011-06-11 00:00,,,43.49,-67.87
2011-06-11 01:00,43.489948273,-67.871551514,43.49,-67.87
2011-06-11 02:00,,,43.49,-67.87
2011-06-11 03:00,,,43.49,-67.87
2011-06-11 04:00,43.489849091,-67.871765137,,
2011-06-11 05:00,43.490001678,-67.871879578,43.49,-67.87
2011-06-11 06:00,43.490234375,-67.871864319,43.49,-67.87
2011-06-11 07:00,43.490348816,-67.871803284,43.49,-67.87
2011-06-11 08:00,43.490417480,-67.871932983,43.49,-67.87
2011-06-11 09:00,43.490383148,-67.871948242,43.49,-67.87
2011-06-11 10:00,,,,
2011-06-11 11:00,43.490215302,-67.872001648,43.49,-67.87
2011-06-11 12:00,43.490200043,-67.871948242,,
2011-06-11 13:00,43.490150452,-67.871879578,43.49,-67.87
2011-06-11 15:00,43.490081787,-67.871803284,43.49,-67.87
2011-06-11 16:00,,,43.49,-67.87
2011-06-11 17:00,,,43.49,-67.87
2011-06-11 18:00,,,43.49,-67.87
2011-06-11 19:00,,,43.49,-67.87
2011-06-11 20:00,43.490467072,-67.871597290,43.49,-67.87
2011-06-11 21:00,43.490501404,-67.871597290,43.49,-67.87
2011-06-11 22:00,43.490348816,-67.871681213,43.49,-67.87
2011-06-11 23:00,43.490200043,-67.871650696,,
2011-06-12 00:00,,,43.49,-67.87
2011-06-12 01:00,43.489982605,-67.871719360,43.49,-67.87
2011-06-12 02:00,43.490016937,-67.871986389,43.49,-67.87
2011-06-12 03:00,43.489868164,-67.871917725,43.49,-67.87
2011-06-12 04:00,43.489917755,-67.871902466,,
2011-06-12 05:00,43.490150452,-67.872016907,43.49,-67.87
2011-06-12 06:00,,,43.49,-67.87
2011-06-12 07:00,43.490634918,-67.871833801,43.49,-67.87
2011-06-12 08:00,43.490715027,-67.871803284,43.49,-67.87
2011-06-12 09:00,,,43.49,-67.87
2011-06-12 10:00,43.490783691,-67.871765137,43.49,-67.87
2011-06-12 11:00,43.490684509,-67.871696472,43.49,-67.87
2011-06-12 12:00,43.490482330,-67.871765137,43.49,-67.87
2011-06-12 13:00,43.490367889,-67.871803284,43.49,-67.87
2011-06-12 14:00,43.490150452,-67.871818542,43.49,-67.87
2011-06-12 15:00,43.489967346,-67.871902466,43.49,-67.87
2011-06-12 16:00,,,43.49,-67.87
2011-06-12 17:00,,,43.49,-67.87
2011-06-12 18:00,,,43.49,-67.87
2011-06-12 19:00,43.490348816,-67.872383118,43.49,-67.87
2011-06-12 20:00,43.490482330,-67.872367859,43.49,-67.87
2011-06-12 21:00,43.490684509,-67.872436523,43.49,-67.87
2011-06-12 22:00,43.490749359,-67.872436523,43.49,-67.87
2011-06-12 23:00,43.490749359,-67.872314453,43.49,-67.87
2011-06-13 00:00,43.490600586,-67.872329712,43.49,-67.87
2011-06-13 01:00,43.490516663,-67.872253418,43.49,-67.87
2011-06-13 02:00,43.490283966,-67.872100830,43.49,-67.87
2011-06-13 03:00,43.490081787,-67.871986389,43.49,-67.87
2011-06-13 04:00,43.490051270,-67.871879578,43.49,-67.87
2011-06-13 05:00,43.489982605,-67.871734619,43.49,-67.87
2011-06-13 06:00,,,43.49,-67.87
2011-06-13 07:00,43.489982605,-67.871467590,43.49,-67.87
2011-06-13 08:00,43.490016937,-67.871635437,43.49,-67.87
2011-06-13 09:00,,,,
2011-06-13 10:00,43.490200043,-67.871864319,43.49,-67.87
2011-06-13 11:00,43.490215302,-67.872032166,43.49,-67.87
2011-06-13 12:00,43.490135193,-67.872100830,,
2011-06-13 13:00,43.490001678,-67.872131348,43.49,-67.87
2011-06-13 14:00,43.489948273,-67.872169495,43.49,-67.87
2011-06-13 15:00,43.489868164,-67.872070312,43.49,-67.87
2011-06-13 16:00,,,43.49,-67.87
2011-06-13 17:00,,,43.49,-67.87
2011-06-13 18:00,,,43.49,-67.87
2011-06-13 19:00,43.490215302,-67.872116089,43.49,-67.87
2011-06-13 20:00,43.490398407,-67.871902466,43.49,-67.87
2011-06-13 21:00,43.490531921,-67.871849060,43.49,-67.87
2011-06-13 22:00,43.490467072,-67.871734619,43.49,-67.87
2011-06-13 23:00,43.490432739,-67.871849060,43.49,-67.87
2011-06-14 00:00,,,43.49,-67.87
2011-06-14 01:00,43.490100861,-67.871902466,43.49,-67.87
2011-06-14 02:00,43.490032196,-67.871864319,43.49,-67.87
2011-06-14 03:00,,,,
2011-06-14 04:00,,,,
2011-06-14 05:00,43.489551544,-67.872001648,43.49,-67.87
2011-06-14 06:00,,,43.49,-67.87
2011-06-14 07:00,43.489784241,-67.872169495,43.49,-67.87
2011-06-14 08:00,43.490066528,-67.872100830,43.49,-67.87
2011-06-14 09:00,43.490264893,-67.872116089,43.49,-67.87
2011-06-14 10:00,43.490432739,-67.872169495,43.49,-67.87
2011-06-14 11:00,43.490550995,-67.871963501,43.49,-67.87
2011-06-14 12:00,,,43.49,-67.87
2011-06-14 13:00,43.490451813,-67.871932983,43.49,-67.87
2011-06-14 14:00,43.490184784,-67.871879578,43.49,-67.87
2011-06-14 15:00,43.490032196,-67.871986389,43.49,-67.87
2011-06-14 16:00,,,,
2011-06-14 17:00,,,,
2011-06-14 18:00,43.489749908,-67.871818542,43.49,-67.87
2011-06-14 19:00,43.489818573,-67.871864319,43.49,-67.87
2011-06-14 20:00,43.489917755,-67.871917725,43.49,-67.87
2011-06-14 21:00,43.490001678,-67.871902466,43.49,-67.87
2011-06-14 22:00,43.490200043,-67.871902466,43.49,-67.87
2011-06-14 23:00,43.490531921,-67.872047424,43.49,-67.87
2011-06-15 00:00,43.490383148,-67.871963501,43.49,-67.87
2011-06-15 01:00,43.490383148,-67.872100830,,
2011-06-15 02:00,,,43.49,-67.87
2011-06-15 04:00,,,,
2011-06-15 05:00,43.489665985,-67.872032166,43.49,-67.87
2011-06-15 06:00,43.489650726,-67.871902466,43.49,-67.87
2011-06-15 07:00,43.489734650,-67.871986389,43.49,-67.87
2011-06-15 08:00,43.489833832,-67.871932983,43.49,-67.87
2011-06-15 09:00,43.490001678,-67.871833801,43.49,-67.87
2011-06-15 10:00,43.490165710,-67.871803284,43.49,-67.87
2011-06-15 11:00,43.490234375,-67.871696472,43.49,-67.87
2011-06-15 12:00,,,43.49,-67.87
2011-06-15 13:00,43.490234375,-67.871849060,43.49,-67.87
2011-06-15 14:00,43.489967346,-67.871849060,43.49,-67.87
2011-06-15 15:00,43.489849091,-67.871902466,43.49,-67.87
2011-06-15 16:00,,,,
2011-06-15 17:00,,,,
2011-06-15 18:00,,,,
2011-06-15 19:00,43.489551544,-67.872131348,43.49,-67.87
2011-06-15 20:00,43.489749908,-67.872169495,43.49,-67.87
2011-06-15 21:00,,,,
2011-06-15 22:00,43.490215302,-67.871986389,43.49,-67.87
2011-06-15 23:00,43.490383148,-67.871780396,43.49,-67.87
2011-06-16 00:00,43.490581512,-67.871734619,43.49,-67.87
2011-06-16 01:00,43.490383148,-67.871620178,43.49,-67.87
2011-06-16 02:00,,,43.49,-67.87
2011-06-16 03:00,43.490200043,-67.871780396,43.49,-67.87
2011-06-16 04:00,43.489967346,-67.871551514,43.49,-67.87
2011-06-16 05:00,43.489799500,-67.871665955,43.49,-67.87
2011-06-16 06:00,43.489685059,-67.871650696,43.49,-67.87
2011-06-16 07:00,43.489601135,-67.871597290,,
2011-06-16 08:00,43.489734650,-67.871635437,43.49,-67.87
2011-06-16 09:00,43.489765167,-67.871719360,43.49,-67.87
2011-06-16 10:00,43.490016937,-67.871665955,43.49,-67.87
2011-06-16 11:00,,,43.49,-67.87
2011-06-16 12:00,43.490398407,-67.871833801,43.49,-67.87
2011-06-16 13:00,43.490467072,-67.871734619,43.49,-67.87
2011-06-16 14:00,43.490467072,-67.871734619,43.49,-67.87
2011-06-16 15:00,43.490333557,-67.871719360,43.49,-67.87
2011-06-16 16:00,,,43.49,-67.87
2011-06-16 17:00,,,43.49,-67.87
2011-06-16 18:00,43.490001678,-67.871719360,43.49,-67.87
2011-06-16 19:00,43.489898682,-67.871635437,43.49,-67.87
2011-06-16 20:00,43.489917755,-67.871566772,43.49,-67.87
2011-06-16 21:00,43.490081787,-67.871513367,43.49,-67.87
2011-06-16 22:00,43.490215302,-67.871467590,43.49,-67.87
2011-06-16 23:00,43.490283966,-67.871437073,43.49,-67.87
2011-06-17 00:00,,,43.49,-67.87
2011-06-17 01:00,,,43.49,-67.87
2011-06-17 02:00,,,43.49,-67.87
2011-06-17 03:00,43.490348816,-67.871780396,43.49,-67.87
2011-06-17 04:00,,,,
2011-06-17 05:00,43.490165710,-67.871833801,43.49,-67.87
2011-06-17 06:00,43.490001678,-67.871765137,43.49,-67.87
2011-06-17 07:00,43.489933014,-67.871681213,43.49,-67.87
2011-06-17 08:00,43.489933014,-67.871582031,43.49,-67.87
2011-06-17 09:00,43.489948273,-67.871582031,43.49,-67.87
2011-06-17 10:00,43.490215302,-67.871582031,43.49,-67.87
2011-06-17 11:00,43.490417480,-67.871551514,43.49,-67.87
2011-06-17 12:00,,,,
2011-06-17 13:00,,,43.49,-67.87
2011-06-17 14:00,43.490684509,-67.871231079,43.49,-67.87
2011-06-17 15:00,43.490398407,-67.871246338,43.49,-67.87
2011-06-17 16:00,,,,
2011-06-17 17:00,43.490016937,-67.871368408,43.49,-67.87
2011-06-17 18:00,43.489818573,-67.871437073,43.49,-67.87
2011-06-17 19:00,43.489784241,-67.871582031,,
2011-06-17 20:00,43.489799500,-67.871597290,43.49,-67.87
2011-06-17 21:00,43.489849091,-67.871536255,43.49,-67.87
2011-06-17 22:00,43.490016937,-67.871635437,43.49,-67.87
2011-06-17 23:00,43.490234375,-67.871650696,43.49,-67.87
2011-06-18 00:00,,,43.49,-67.87
2011-06-18 01:00,,,43.49,-67.87
2011-06-18 02:00,,,43.49,-67.87
2011-06-18 03:00,43.490699768,-67.871696472,43.49,-67.87
2011-06-18 04:00,43.490600586,-67.871597290,43.49,-67.87
2011-06-18 05:00,43.490516663,-67.871536255,,
2011-06-18 06:00,43.490318298,-67.871597290,43.49,-67.87
2011-06-18 07:00,43.490100861,-67.871536255,43.49,-67.87
2011-06-18 08:00,43.490001678,-67.871452332,43.49,-67.87
2011-06-18 09:00,43.489883423,-67.871353149,43.49,-67.87
2011-06-18 10:00,43.489833832,-67.871315002,43.49,-67.87
2011-06-18 11:00,43.490032196,-67.871414185,43.49,-67.87
2011-06-18 12:00,43.490249634,-67.871566772,43.49,-67.87
2011-06-18 13:00,43.490451813,-67.871620178,43.49,-67.87
2011-06-18 14:00,43.490550995,-67.871696472,43.49,-67.87
2011-06-18 15:00,43.490615845,-67.871696472,43.49,-67.87
2011-06-18 16:00,,,43.49,-67.87
2011-06-18 17:00,43.490482330,-67.871765137,43.49,-67.87
2011-06-18 18:00,43.490318298,-67.871681213,43.49,-67.87
2011-06-18 19:00,43.490200043,-67.871696472,43.49,-67.87
2011-06-18 20:00,43.490051270,-67.871597290,43.49,-67.87
2011-06-18 21:00,43.490016937,-67.871482849,43.49,-67.87
2011-06-18 22:00,43.490001678,-67.871330261,43.49,-67.87
2011-06-18 23:00,43.490150452,-67.871368408,43.49,-67.87
2011-06-19 00:00,,,43.49,-67.87
2011-06-19 01:00,43.490348816,-67.871536255,,
2011-06-19 02:00,,,43.49,-67.87
2011-06-19 03:00,43.490398407,-67.871414185,43.49,-67.87
2011-06-19 04:00,43.490383148,-67.871551514,43.49,-67.87
2011-06-19 05:00,43.490264893,-67.871719360,,
2011-06-19 06:00,43.490165710,-67.871803284,43.49,-67.87
2011-06-19 07:00,43.490051270,-67.871879578,,
2011-06-19 08:00,43.489967346,-67.871749878,43.49,-67.87
2011-06-19 09:00,43.489898682,-67.871597290,43.49,-67.87
2011-06-19 10:00,43.489933014,-67.871551514,,
2011-06-19 11:00,43.489967346,-67.871437073,,
2011-06-19 12:00,43.490116119,-67.871437073,,
2011-06-19 13:00,43.490249634,-67.871368408,43.49,-67.87
2011-06-19 14:00,43.490333557,-67.871147156,43.49,-67.87
2011-06-19 15:00,43.490318298,-67.871231079,43.49,-67.87
2011-06-19 16:00,,,,
2011-06-19 17:00,,,43.49,-67.87
2011-06-19 18:00,43.490215302,-67.871536255,43.49,-67.87
2011-06-19 19:00,43.490001678,-67.871536255,43.49,-67.87
2011-06-19 20:00,43.489948273,-67.871665955,43.49,-67.87
2011-06-19 21:00,43.489917755,-67.871536255,43.49,-67.87
2011-06-19 22:00,43.489982605,-67.871498108,43.49,-67.87
2011-06-19 23:00,43.489967346,-67.871414185,43.49,-67.87
2011-06-20 00:00,43.490066528,-67.871383667,,
2011-06-20 01:00,,,43.49,-67.87
2011-06-20 02:00,,,43.49,-67.87
2011-06-20 04:00,43.490451813,-67.871398926,43.49,-67.87
2011-06-20 05:00,43.490398407,-67.871467590,43.49,-67.87
2011-06-20 06:00,43.490249634,-67.871498108,43.49,-67.87
2011-06-20 07:00,43.490066528,-67.871536255,43.49,-67.87
2011-06-20 08:00,43.489967346,-67.871582031,,
2011-06-20 09:00,43.489868164,-67.871566772,43.49,-67.87
2011-06-20 10:00,,,43.49,-67.87
2011-06-20 11:00,43.489883423,-67.871467590,43.49,-67.87
2011-06-20 12:00,43.490001678,-67.871620178,43.49,-67.87
2011-06-20 13:00,43.490066528,-67.871620178,43.49,-67.87
2011-06-20 14:00,,,,
2011-06-20 15:00,43.490348816,-67.871513367,43.49,-67.87
2011-06-20 16:00,,,43.49,-67.87
2011-06-20 17:00,,,43.49,-67.87
2011-06-20 18:00,43.490367889,-67.871551514,43.49,-67.87
2011-06-20 19:00,43.490215302,-67.871582031,43.49,-67.87
2011-06-20 20:00,43.490165710,-67.871582031,43.49,-67.87
2011-06-20 21:00,43.490016937,-67.871665955,,
2011-06-20 22:00,43.489948273,-67.871551514,43.49,-67.87
2011-06-20 23:00,43.489898682,-67.871482849,,
2011-06-21 00:00,43.490051270,-67.871597290,43.49,-67.87
2011-06-21 01:00,,,,
2011-06-21 02:00,,,43.49,-67.87
2011-06-21 03:00,43.490318298,-67.871597290,43.49,-67.87
2011-06-21 04:00,43.490318298,-67.871620178,43.49,-67.87
2011-06-21 05:00,43.490367889,-67.871681213,43.49,-67.87
2011-06-21 06:00,43.490318298,-67.871719360,43.49,-67.87
2011-06-21 07:00,43.490234375,-67.871765137,43.49,-67.87
2011-06-21 08:00,43.490184784,-67.871719360,43.49,-67.87
2011-06-21 09:00,43.490100861,-67.871681213,43.48,-67.87
2011-06-21 10:00,43.490001678,-67.871719360,43.49,-67.87
2011-06-21 11:00,43.489967346,-67.871650696,43.49,-67.87
2011-06-21 12:00,43.490066528,-67.871650696,43.49,-67.87
2011-06-21 13:00,43.490165710,-67.871582031,43.49,-67.87
2011-06-21 14:00,43.490234375,-67.871513367,43.49,-67.87
2011-06-21 15:00,,,43.49,-67.87
2011-06-21 16:00,,,43.49,-67.87
2011-06-21 17:00,,,43.49,-67.87
2011-06-21 18:00,,,43.49,-67.87
2011-06-21 19:00,43.490249634,-67.871620178,43.49,-67.87
2011-06-21 20:00,,,,
2011-06-21 21:00,43.490081787,-67.871749878,43.49,-67.87
2011-06-21 22:00,43.489948273,-67.871749878,43.49,-67.87
2011-06-21 23:00,43.489917755,-67.871665955,43.49,-67.87
2011-06-22 00:00,,,,
2011-06-22 01:00,,,43.49,-67.87
2011-06-22 02:00,,,43.49,-67.87
2011-06-22 03:00,43.490283966,-67.871734619,43.49,-67.87
2011-06-22 04:00,43.490367889,-67.871566772,,
2011-06-22 05:00,43.490367889,-67.871513367,43.49,-67.87
2011-06-22 06:00,43.490318298,-67.871482849,43.49,-67.87
2011-06-22 07:00,43.490234375,-67.871620178,43.49,-67.87
2011-06-22 08:00,43.490165710,-67.871620178,43.49,-67.87
2011-06-22 09:00,43.490066528,-67.871635437,,
2011-06-22 10:00,43.489982605,-67.871665955,43.49,-67.87
2011-06-22 11:00,43.489948273,-67.871719360,43.49,-67.87
2011-06-22 12:00,43.489933014,-67.871696472,43.49,-67.87
2011-06-22 13:00,43.489948273,-67.871719360,43.49,-67.87
2011-06-22 14:00,43.490116119,-67.871681213,43.49,-67.87
2011-06-22 15:00,,,43.49,-67.87
2011-06-22 16:00,,,43.49,-67.87
2011-06-22 17:00,,,43.49,-67.87
2011-06-22 18:00,43.490482330,-67.871681213,43.49,-67.87
2011-06-22 19:00,43.490516663,-67.871734619,43.49,-67.87
2011-06-22 20:00,43.490348816,-67.871635437,43.49,-67.87
2011-06-22 21:00,43.490200043,-67.871665955,43.49,-67.87
2011-06-22 22:00,43.490135193,-67.871734619,43.49,-67.87
2011-06-22 23:00,43.489967346,-67.871665955,43.49,-67.87
2011-06-23 00:00,43.489948273,-67.871582031,43.49,-67.87
2011-06-23 01:00,43.490066528,-67.871765137,43.49,-67.87
2011-06-23 02:00,43.490299225,-67.871864319,43.49,-67.87
2011-06-23 03:00,43.490249634,-67.871749878,43.49,-67.87
2011-06-23 04:00,43.490318298,-67.871765137,,
2011-06-23 05:00,43.490451813,-67.871681213,43.49,-67.87
2011-06-23 06:00,43.490451813,-67.871719360,43.49,-67.87
2011-06-23 07:00,43.490550995,-67.871749878,43.49,-67.87
2011-06-23 08:00,43.490451813,-67.871719360,43.49,-67.87
2011-06-23 09:00,43.490333557,-67.871650696,43.49,-67.87
2011-06-23 10:00,43.490200043,-67.871650696,43.49,-67.87
2011-06-23 11:00,43.490066528,-67.871665955,43.49,-67.87
2011-06-23 12:00,43.489933014,-67.871681213,43.49,-67.87